EW5526 Weather Reports


Display with metric or nautical units.
time (UTC)temp
F
wind
direction
speed
MPH
gust
MPH
rain 1hr
in
rain 24hr
in
rain mn
in
humidity
%
barometer
mb
20260905153043 87 274 8.0 12.0 0.00 0.00 0.00 53 1020.6
20260905143043 87 9 8.0 11.0 0.00 0.00 0.00 58 1020.9
20260905140042 88 298 7.0 10.0 0.00 0.00 0.00 56 1020.9
20260905133042 93 257 7.0 7.0 0.00 0.00 0.00 50 1021.5
20260905123041 92 163 4.0 7.0 0.00 0.00 0.00 38 1021.6
20260905120041 92 198 2.0 5.0 0.00 0.00 0.00 35 1021.6
20260905113041 91 160 6.0 11.0 0.00 0.00 0.00 38 1021.9
20260905110040 91 153 4.0 4.0 0.00 0.00 0.00 40 1022.1
20260905103040 91 161 5.0 7.0 0.00 0.00 0.00 39 1021.9
20260905100039 91 143 4.0 8.0 0.00 0.00 0.00 39 1022.0
20260905093039 91 189 4.0 5.0 0.00 0.00 0.00 36 1022.1
20260905090039 89 123 4.0 8.0 0.00 0.00 0.00 36 1022.0
20260905083039 86 105 2.0 2.0 0.00 0.00 0.00 47 1021.9
20260905060038 79 5 3.0 3.0 0.00 0.00 0.00 49 1020.6
20260905050037 77 330 4.0 4.0 0.00 0.00 0.00 50 1020.3
20260904223032 75 9 3.0 5.0 0.00 0.00 0.00 67 1021.1
20260904220032 75 29 2.0 5.0 0.00 0.00 0.00 67 1021.0
20260904213033 76 81 2.0 3.0 0.00 0.00 0.00 63 1020.9
20260904183031 78 313 6.0 10.0 0.00 0.00 0.00 78 1019.9
20260904180030 78 346 3.0 8.0 0.00 0.00 0.00 75 1019.5